SCP
0 0 0 0 0 0 0 0 0 0 0 0 0 0 0 0 0 0 0 0 0 0 0 0 0 0 0 0 0 0 0 0 0 0 0 0 0 0 0 0 0 0 0
0 0 0 0 0 0 0 0 0 0 0 0 0 0 0 0 0 0 0 0 0 0 0 0 0 0 0 0 0 0 0 0 0 0 0 0 0 0 0 0 0 0 0
0 0 0 0 0 0 0 0 0 0 0 0 0 0 0 0 0 0 0 0 0 0 0 0 0 0 0 0 0 0 0 0 0 0 0 0 0 0 0 0 0 0 0
0 0 0 0 0 0 0 0 0 0 0 0 0 0 0 0 0 0 0 0 0 0 0 0 0 0 0 0 0 0 0 0 0 0 0 0 0 0 0 0 0 0 0
0 0 0 0 0 0 0 0 0 0 0 0 0 0 0 0 0 0 0 0 0 0 0 0 0 0 0 0 0 0 0 0 0 0 0 0 0 0 0 0 0 0 0
0 0 0 0 0 0 0 0 0 0 0 0 0 0 0 0 0 0 0 0 0 0 0 0 0 0 0 0 0 0 0 0 0 0 0 0 0 0 0 0 0 0 0
0 0 0 0 0 0 0 0 0 0 0 0 0 0 0 0 0 0 0 0 0 0 0 0 0 0 0 0 0 0 0 0 0 0 0 0 0 0 0 0 0 0 0
0 0 0 0 0 0 0 0 0 0 0 0 0 0 0 0 0 0 0 0 0 0 0 0 0 0 0 0 0 0 0 0 0 0 0 0 0 0 0 0 0 0 0
0 0 0 0 0 0 0 0 0 0 0 0 0 0 0 0 0 0 0 0 0 0 0 0 0 0 0 0 0 0 0 0 0 0 0 0 0 0 0 0 0 0 -0
0 0 0 0 0 0 0 0 0 0 0 0 0 0 0 0 0 0 0 0 0 0 0 0 0 0 0 0 0 0 0 0 0 0 0 0 0 0 0 0 0 -0 -0
0 0 0 0 0 0 0 0 0 0 0 0 0 0 0 0 0 0 0 0 0 0 0 0 0 0 0 0 0 0 0 0 0 0 0 0 0 0 -0 -0 0 0 0
0 0 0 0 0 0 0 0 0 0 0 0 0 0 0 0 0 0 0 0 0 0 0 0 0 0 0 0 0 0 0 0 0 0 0 0 0 0 0 0 0 0 0
0 0 0 0 0 0 0 0 0 0 0 0 0 0 0 0 0 0 0 0 0 0 0 0 0 0 0 0 0 0 0 0 0 0 0 0 0 0 0 0 0 0 0
0 0 0 0 0 0 0 0 0 0 0 0 0 0 0 0 0 0 0 0 0 0 0 0 0 0 0 0 0 0 0 0 0 0 0 0 0 0 0 0 0 0 0
0 0 0 0 0 0 0 0 0 0 0 0 0 0 0 0 0 0 0 0 0 0 0 0 0 0 0 0 0 0 0 0 0 0 0 0 0 0 0 0 0 0 0
0 0 0 0 0 0 0 0 0 0 0 0 0 0 0 0 0 0 0 0 0 0 0 0 0 0 0 0 0 0 0 0 0 0 0 0 0 0 0 0 0 0 0
0 0 0 0 0 0 0 0 0 0 0 0 0 0 0 0 0 0 0 0 0 0 0 0 0 0 0 0 0 0 0 0 0 0 0 0 0 0 0 0 0 0 0
0 0 0 0 0 0 0 0 0 0 0 0 0 0 0 0 0 0 0 0 0 0 0 0 0 0 0 0 0 0 0 0 0 0 0 0 0 0 0 0 0 0 0
0 0 0 0 0 0 0 0 0 0 0 0 0 0 0 0 0 0 0 0 0 0 0 0 0 0 0 0 0 0 0 0 0 0 0 0 0 0 0 0 0 0 0
0 0 0 0 0 0 0 0 0 0 0 0 0 0 0 0 0 0 0 0 0 0 0 0 0 0 0 0 0 0 0 0 0 0 0 0 0 0 0 0 0 0 0
0 0 0 0 0 0 0 0 0 0 0 0 0 0 0 0 0 0 0 0 0 0 0 0 0 0 0 0 0 0 0 0 0 0 0 0 0 0 0 0 0 0 0
0 0 0 0 0 0 0 0 0 0 0 0 0 0 0 0 0 0 0 0 0 0 0 0 0 0 0 0 0 0 0 0 0 0 0 0 0 0 0 0 0 0 0
0 0 0 0 0 0 0 0 0 0 0 0 0 0 0 0 0 0 0 0 0 0 0 0 0 0 0 0 0 0 0 0 0 0 0 0 0 0 0 0 0 0 0
0 0 0 0 0 0 0 0 0 0 0 0 0 0 0 0 0 0 0 0 0 0 0 0 0 0 0 0 0 0 0 0 0 0 0 0 0 0 0 0 0 0 0
0 0 0 0 0 0 0 0 0 0 0 0 0 0 0 0 0 0 0 0 0 0 0 0 0 0 0 0 0 0 0 0 0 0 0 0 0 0 0 0 0 0 0
0 0 0 0 0 0 0 0 0 0 0 0 0 0 0 0 0 0 0 0 0 0 0 0 0 0 0 0 0 0 0 0 0 0 0 0 0 0 0 0 0 0 0
Wind_Speed_500mb
29 31 33 35 37 38 39 39 41 41 40 40 41 40 38 37 36 37 37 40 38 38 39 39 38 39 40 41 42 42 45 49 52 52 52 51 49 48 51 53 56 57 55
30 33 36 38 39 40 41 42 41 40 39 39 38 37 37 36 35 35 31 36 32 34 37 39 38 39 39 41 42 43 44 45 46 47 48 48 48 47 48 53 56 58 61
30 32 34 37 40 41 42 42 41 40 37 34 35 35 34 33 34 33 29 26 27 29 30 31 32 33 35 36 37 38 37 37 38 39 41 41 41 43 42 44 48 50 51
29 31 35 37 40 40 40 39 38 39 37 34 32 29 31 31 32 30 27 25 24 23 25 25 25 27 28 29 30 30 31 32 32 33 34 36 38 41 44 46 48 52 54
33 36 40 42 43 42 39 38 36 35 34 34 32 29 29 30 30 27 27 28 30 27 25 22 22 23 22 21 22 24 25 27 31 35 38 39 39 40 42 45 47 49 52
38 40 42 42 39 37 37 37 37 34 33 32 32 29 27 28 27 25 25 27 28 26 24 21 19 19 18 18 19 20 24 28 30 31 33 35 36 37 40 43 46 50 54
43 43 41 40 39 37 38 38 37 34 28 26 24 18 21 22 23 27 27 27 27 24 22 21 21 20 22 20 20 22 24 24 27 29 29 30 33 37 39 42 46 48 50
45 42 41 40 42 41 39 37 33 29 26 25 16 16 10 15 23 28 30 30 27 24 21 19 21 22 21 22 21 21 24 28 28 29 29 30 33 34 38 40 43 45 47
45 45 45 46 45 42 37 35 31 27 22 19 20 14 9 9 11 26 33 31 27 26 21 20 22 21 19 19 20 23 26 29 29 28 30 31 34 37 36 35 40 42 43
47 49 48 47 44 41 37 33 29 29 26 18 21 21 23 16 6 8 23 34 38 36 30 26 23 20 18 18 21 24 28 27 28 29 30 35 36 35 34 35 37 40 41
49 46 46 43 41 38 35 34 32 30 32 30 25 26 23 19 22 13 9 12 23 34 33 26 23 20 18 17 21 26 28 28 29 30 32 33 32 34 35 33 37 38 43
40 40 39 39 38 37 34 32 34 32 32 30 30 29 26 17 11 18 18 21 27 25 24 23 20 18 19 18 25 29 29 29 29 31 35 33 30 34 31 33 32 37 46
36 35 34 33 34 35 34 34 33 31 31 30 29 28 28 26 26 23 24 22 18 19 13 16 15 15 19 25 30 31 30 32 33 35 33 31 31 33 35 37 40 42 50
38 37 36 34 34 36 35 36 36 34 32 30 30 30 29 28 28 27 26 20 16 13 16 16 15 14 20 28 28 27 26 27 30 32 34 34 37 39 40 41 41 47 51
41 39 38 39 39 40 39 39 38 37 34 33 32 31 31 31 29 27 27 27 22 7 5 11 9 15 25 24 22 22 22 22 25 31 35 37 40 43 44 45 44 53 55
40 40 37 39 39 40 39 38 38 36 36 33 33 32 31 29 27 26 28 29 29 27 19 18 18 25 18 15 17 19 20 23 24 28 31 34 37 40 39 42 46 50 55
38 37 35 35 34 34 32 34 34 35 35 33 32 30 28 26 24 23 25 27 30 30 38 39 27 17 14 14 13 18 21 24 26 26 27 30 31 32 34 38 44 47 49
32 31 30 32 33 32 33 34 34 34 34 32 30 29 25 21 19 19 21 23 26 25 31 40 28 18 18 16 17 17 16 20 25 24 22 26 27 28 32 35 38 40 42
32 29 30 31 31 31 32 33 34 33 32 31 31 29 26 23 18 18 20 22 21 24 31 40 39 26 25 23 21 21 20 20 23 20 23 28 29 28 29 32 33 37 40
32 29 31 32 30 29 29 31 32 33 33 32 32 32 30 28 27 28 26 24 26 30 34 40 40 34 30 26 28 31 27 22 24 21 20 30 29 26 29 32 33 35 37
32 30 29 32 33 32 31 31 32 32 32 32 33 33 32 32 33 33 33 33 35 37 38 40 40 36 33 32 34 35 39 40 31 24 25 25 31 30 30 33 35 36 37
34 35 33 32 34 33 29 28 31 33 33 35 36 36 36 38 38 39 40 39 40 41 43 42 43 43 39 38 37 40 39 44 46 36 45 35 31 33 34 35 37 37 35
39 39 38 39 38 36 32 31 32 36 37 40 42 42 42 43 43 44 45 45 47 48 48 49 52 50 47 44 43 44 43 42 46 47 50 54 41 37 37 39 41 39 35
40 42 43 43 44 43 40 39 40 44 48 49 50 50 50 50 50 49 49 52 53 54 53 54 55 51 52 49 49 48 48 50 49 47 45 46 50 47 35 45 44 35 34
38 41 43 44 47 47 45 46 47 53 57 58 58 59 59 57 54 54 56 56 58 59 59 59 55 53 56 54 53 52 52 49 52 48 48 52 44 50 53 45 35 32 32
32 35 37 39 42 44 44 47 50 53 60 63 65 66 66 66 62 61 64 62 64 61 64 63 58 54 57 58 56 57 52 54 52 52 41 37 47 52 33 43 28 47 50
Wind_Direction_500mb
282 287 291 293 295 296 297 299 299 299 298 295 293 289 283 275 268 266 263 266 263 259 256 254 252 252 254 256 257 257 256 257 259 261 264 267 268 271 273 273 273 274 278
285 291 295 296 297 298 299 299 298 296 295 293 291 286 282 277 270 264 261 268 260 255 251 250 250 250 250 250 252 253 255 258 262 267 271 274 275 273 272 275 277 276 275
288 291 293 295 296 299 300 300 301 299 297 292 289 285 281 275 269 263 256 255 256 251 251 250 248 248 250 253 256 259 263 267 270 273 277 281 285 286 284 283 283 283 283
289 292 294 294 294 295 295 296 297 298 297 292 287 280 275 270 266 261 252 237 236 243 241 244 245 246 247 250 256 262 266 272 276 281 285 289 291 293 295 293 290 289 288
291 294 295 294 293 292 292 292 293 294 292 288 283 280 272 264 260 254 243 229 229 227 232 232 238 244 251 257 263 267 275 283 289 292 293 296 300 302 302 304 305 304 302
287 291 293 293 293 291 291 290 292 290 288 284 281 278 268 260 249 236 231 225 222 220 225 232 245 254 264 274 278 283 284 285 288 291 297 302 305 307 309 312 313 312 310
286 289 287 286 288 289 289 290 289 288 282 278 285 289 271 255 236 218 221 220 217 219 231 242 255 266 275 276 282 286 287 290 293 297 298 301 307 310 308 305 304 303 303
281 283 281 282 284 286 288 288 285 281 276 273 255 236 239 259 234 226 218 216 221 226 237 257 271 275 277 282 285 287 290 293 294 296 297 296 295 298 302 306 307 308 309
280 281 280 281 281 282 280 278 277 272 260 262 252 224 240 244 201 243 225 221 224 234 242 278 281 274 271 273 279 284 286 287 288 288 293 301 306 305 303 312 319 317 314
280 280 279 278 276 275 273 269 267 260 258 240 257 246 227 223 222 223 230 234 238 241 255 277 276 263 257 262 274 282 283 286 287 295 305 306 304 303 316 316 314 317 315
279 277 277 276 273 270 265 263 259 256 252 244 237 238 243 238 233 222 222 252 249 248 253 264 256 242 239 260 279 283 284 286 291 300 303 306 312 322 323 317 320 324 323
276 279 275 272 269 265 262 260 259 256 254 249 245 243 240 219 217 229 244 248 249 258 251 250 233 226 235 268 288 289 289 290 296 299 305 315 324 325 327 329 326 321 324
274 275 275 272 269 264 259 257 260 257 253 250 247 246 244 240 241 245 252 262 271 266 258 231 218 234 247 284 293 291 288 290 294 298 307 315 317 319 324 325 323 318 317
271 271 273 268 264 261 262 261 260 258 255 251 250 249 250 250 251 251 253 255 281 289 289 224 230 237 286 303 304 300 299 293 293 295 300 307 307 309 313 315 318 319 316
272 272 269 268 265 265 263 263 259 257 254 253 252 252 254 257 255 253 250 249 249 261 266 260 238 272 310 314 316 320 320 316 309 307 307 307 307 305 304 312 306 309 310
269 271 269 268 266 265 262 258 253 251 250 250 253 256 257 254 251 250 251 249 245 241 244 246 276 308 312 327 331 335 333 329 325 321 318 314 313 314 313 313 312 312 313
269 268 267 266 265 262 258 254 252 247 247 247 250 251 249 249 252 251 250 249 248 245 251 269 286 305 316 320 340 343 341 338 340 335 325 318 322 326 329 325 322 322 321
265 265 265 266 264 264 260 254 254 250 247 245 243 240 239 244 249 253 251 249 249 250 258 273 288 299 313 327 340 348 347 344 341 345 343 339 335 333 338 336 334 331 331
264 262 267 267 266 262 257 254 253 248 246 242 235 231 231 239 249 254 251 249 252 258 266 274 286 302 308 314 319 327 335 340 344 338 339 338 338 337 341 342 342 342 340
264 265 269 269 264 259 254 252 251 248 243 237 231 229 236 248 253 257 258 258 257 262 270 276 287 299 303 310 312 316 316 321 324 318 320 331 334 329 336 339 337 338 340
266 264 266 271 270 261 254 251 250 248 246 238 235 239 247 252 252 256 262 264 263 264 266 272 282 291 296 299 305 309 313 317 320 314 308 329 322 323 325 329 331 328 331
264 264 263 263 266 269 267 258 254 251 246 244 248 250 251 254 258 261 263 263 265 265 266 269 275 278 282 286 294 301 309 313 319 317 316 315 319 321 315 321 324 321 321
262 264 264 265 267 265 263 261 257 254 251 254 255 256 258 260 260 261 264 265 263 264 267 268 268 272 278 283 287 293 297 299 300 309 311 309 318 319 310 317 320 314 311
266 267 266 264 264 264 263 260 258 259 260 261 262 263 264 263 263 264 267 268 268 267 267 267 271 276 275 277 280 285 288 290 293 298 305 305 313 313 309 314 313 306 304
270 270 270 270 270 269 265 262 260 260 261 262 264 265 267 267 266 267 268 268 268 267 269 269 270 270 271 273 274 276 279 286 292 299 299 299 307 305 310 313 309 302 303
276 275 275 274 273 273 269 265 262 258 260 262 263 265 266 268 268 268 270 269 266 267 270 272 270 266 266 268 268 269 274 277 281 291 295 289 297 303 310 305 302 301 306
Wind_Speed_850mb
29 31 33 35 37 38 39 39 41 41 40 40 41 40 38 37 36 37 37 40 38 38 39 39 38 39 40 41 42 42 45 49 52 52 52 51 49 48 51 53 56 57 55
30 33 36 38 39 40 41 42 41 40 39 39 38 37 37 36 35 35 31 36 32 34 37 39 38 39 39 41 42 43 44 45 46 47 48 48 48 47 48 53 56 58 61
30 32 34 37 40 41 42 42 41 40 37 34 35 35 34 33 34 33 29 26 27 29 30 31 32 33 35 36 37 38 37 37 38 39 41 41 41 43 42 44 48 50 51
29 31 35 37 40 40 40 39 38 39 37 34 32 29 31 31 32 30 27 25 24 23 25 25 25 27 28 29 30 30 31 32 32 33 34 36 38 41 44 46 48 52 54
33 36 40 42 43 42 39 38 36 35 34 34 32 29 29 30 30 27 27 28 30 27 25 22 22 23 22 21 22 24 25 27 31 35 38 39 39 40 42 45 47 49 52
38 40 42 42 39 37 37 37 37 34 33 32 32 29 27 28 27 25 25 27 28 26 24 21 19 19 18 18 19 20 24 28 30 31 33 35 36 37 40 43 46 50 54
43 43 41 40 39 37 38 38 37 34 28 26 24 18 21 22 23 27 27 27 27 24 22 21 21 20 22 20 20 22 24 24 27 29 29 30 33 37 39 42 46 48 50
45 42 41 40 42 41 39 37 33 29 26 25 16 16 10 15 23 28 30 30 27 24 21 19 21 22 21 22 21 21 24 28 28 29 29 30 33 34 38 40 43 45 47
45 45 45 46 45 42 37 35 31 27 22 19 20 14 9 9 11 26 33 31 27 26 21 20 22 21 19 19 20 23 26 29 29 28 30 31 34 37 36 35 40 42 43
47 49 48 47 44 41 37 33 29 29 26 18 21 21 23 16 6 8 23 34 38 36 30 26 23 20 18 18 21 24 28 27 28 29 30 35 36 35 34 35 37 40 41
49 46 46 43 41 38 35 34 32 30 32 30 25 26 23 19 22 13 9 12 23 34 33 26 23 20 18 17 21 26 28 28 29 30 32 33 32 34 35 33 37 38 43
40 40 39 39 38 37 34 32 34 32 32 30 30 29 26 17 11 18 18 21 27 25 24 23 20 18 19 18 25 29 29 29 29 31 35 33 30 34 31 33 32 37 46
36 35 34 33 34 35 34 34 33 31 31 30 29 28 28 26 26 23 24 22 18 19 13 16 15 15 19 25 30 31 30 32 33 35 33 31 31 33 35 37 40 42 50
38 37 36 34 34 36 35 36 36 34 32 30 30 30 29 28 28 27 26 20 16 13 16 16 15 14 20 28 28 27 26 27 30 32 34 34 37 39 40 41 41 47 51
41 39 38 39 39 40 39 39 38 37 34 33 32 31 31 31 29 27 27 27 22 7 5 11 9 15 25 24 22 22 22 22 25 31 35 37 40 43 44 45 44 53 55
40 40 37 39 39 40 39 38 38 36 36 33 33 32 31 29 27 26 28 29 29 27 19 18 18 25 18 15 17 19 20 23 24 28 31 34 37 40 39 42 46 50 55
38 37 35 35 34 34 32 34 34 35 35 33 32 30 28 26 24 23 25 27 30 30 38 39 27 17 14 14 13 18 21 24 26 26 27 30 31 32 34 38 44 47 49
32 31 30 32 33 32 33 34 34 34 34 32 30 29 25 21 19 19 21 23 26 25 31 40 28 18 18 16 17 17 16 20 25 24 22 26 27 28 32 35 38 40 42
32 29 30 31 31 31 32 33 34 33 32 31 31 29 26 23 18 18 20 22 21 24 31 40 39 26 25 23 21 21 20 20 23 20 23 28 29 28 29 32 33 37 40
32 29 31 32 30 29 29 31 32 33 33 32 32 32 30 28 27 28 26 24 26 30 34 40 40 34 30 26 28 31 27 22 24 21 20 30 29 26 29 32 33 35 37
32 30 29 32 33 32 31 31 32 32 32 32 33 33 32 32 33 33 33 33 35 37 38 40 40 36 33 32 34 35 39 40 31 24 25 25 31 30 30 33 35 36 37
34 35 33 32 34 33 29 28 31 33 33 35 36 36 36 38 38 39 40 39 40 41 43 42 43 43 39 38 37 40 39 44 46 36 45 35 31 33 34 35 37 37 35
39 39 38 39 38 36 32 31 32 36 37 40 42 42 42 43 43 44 45 45 47 48 48 49 52 50 47 44 43 44 43 42 46 47 50 54 41 37 37 39 41 39 35
40 42 43 43 44 43 40 39 40 44 48 49 50 50 50 50 50 49 49 52 53 54 53 54 55 51 52 49 49 48 48 50 49 47 45 46 50 47 35 45 44 35 34
38 41 43 44 47 47 45 46 47 53 57 58 58 59 59 57 54 54 56 56 58 59 59 59 55 53 56 54 53 52 52 49 52 48 48 52 44 50 53 45 35 32 32
32 35 37 39 42 44 44 47 50 53 60 63 65 66 66 66 62 61 64 62 64 61 64 63 58 54 57 58 56 57 52 54 52 52 41 37 47 52 33 43 28 47 50
Wind_Direction_850mb
282 287 291 293 295 296 297 299 299 299 298 295 293 289 283 275 268 266 263 266 263 259 256 254 252 252 254 256 257 257 256 257 259 261 264 267 268 271 273 273 273 274 278
285 291 295 296 297 298 299 299 298 296 295 293 291 286 282 277 270 264 261 268 260 255 251 250 250 250 250 250 252 253 255 258 262 267 271 274 275 273 272 275 277 276 275
288 291 293 295 296 299 300 300 301 299 297 292 289 285 281 275 269 263 256 255 256 251 251 250 248 248 250 253 256 259 263 267 270 273 277 281 285 286 284 283 283 283 283
289 292 294 294 294 295 295 296 297 298 297 292 287 280 275 270 266 261 252 237 236 243 241 244 245 246 247 250 256 262 266 272 276 281 285 289 291 293 295 293 290 289 288
291 294 295 294 293 292 292 292 293 294 292 288 283 280 272 264 260 254 243 229 229 227 232 232 238 244 251 257 263 267 275 283 289 292 293 296 300 302 302 304 305 304 302
287 291 293 293 293 291 291 290 292 290 288 284 281 278 268 260 249 236 231 225 222 220 225 232 245 254 264 274 278 283 284 285 288 291 297 302 305 307 309 312 313 312 310
286 289 287 286 288 289 289 290 289 288 282 278 285 289 271 255 236 218 221 220 217 219 231 242 255 266 275 276 282 286 287 290 293 297 298 301 307 310 308 305 304 303 303
281 283 281 282 284 286 288 288 285 281 276 273 255 236 239 259 234 226 218 216 221 226 237 257 271 275 277 282 285 287 290 293 294 296 297 296 295 298 302 306 307 308 309
280 281 280 281 281 282 280 278 277 272 260 262 252 224 240 244 201 243 225 221 224 234 242 278 281 274 271 273 279 284 286 287 288 288 293 301 306 305 303 312 319 317 314
280 280 279 278 276 275 273 269 267 260 258 240 257 246 227 223 222 223 230 234 238 241 255 277 276 263 257 262 274 282 283 286 287 295 305 306 304 303 316 316 314 317 315
279 277 277 276 273 270 265 263 259 256 252 244 237 238 243 238 233 222 222 252 249 248 253 264 256 242 239 260 279 283 284 286 291 300 303 306 312 322 323 317 320 324 323
276 279 275 272 269 265 262 260 259 256 254 249 245 243 240 219 217 229 244 248 249 258 251 250 233 226 235 268 288 289 289 290 296 299 305 315 324 325 327 329 326 321 324
274 275 275 272 269 264 259 257 260 257 253 250 247 246 244 240 241 245 252 262 271 266 258 231 218 234 247 284 293 291 288 290 294 298 307 315 317 319 324 325 323 318 317
271 271 273 268 264 261 262 261 260 258 255 251 250 249 250 250 251 251 253 255 281 289 289 224 230 237 286 303 304 300 299 293 293 295 300 307 307 309 313 315 318 319 316
272 272 269 268 265 265 263 263 259 257 254 253 252 252 254 257 255 253 250 249 249 261 266 260 238 272 310 314 316 320 320 316 309 307 307 307 307 305 304 312 306 309 310
269 271 269 268 266 265 262 258 253 251 250 250 253 256 257 254 251 250 251 249 245 241 244 246 276 308 312 327 331 335 333 329 325 321 318 314 313 314 313 313 312 312 313
269 268 267 266 265 262 258 254 252 247 247 247 250 251 249 249 252 251 250 249 248 245 251 269 286 305 316 320 340 343 341 338 340 335 325 318 322 326 329 325 322 322 321
265 265 265 266 264 264 260 254 254 250 247 245 243 240 239 244 249 253 251 249 249 250 258 273 288 299 313 327 340 348 347 344 341 345 343 339 335 333 338 336 334 331 331
264 262 267 267 266 262 257 254 253 248 246 242 235 231 231 239 249 254 251 249 252 258 266 274 286 302 308 314 319 327 335 340 344 338 339 338 338 337 341 342 342 342 340
264 265 269 269 264 259 254 252 251 248 243 237 231 229 236 248 253 257 258 258 257 262 270 276 287 299 303 310 312 316 316 321 324 318 320 331 334 329 336 339 337 338 340
266 264 266 271 270 261 254 251 250 248 246 238 235 239 247 252 252 256 262 264 263 264 266 272 282 291 296 299 305 309 313 317 320 314 308 329 322 323 325 329 331 328 331
264 264 263 263 266 269 267 258 254 251 246 244 248 250 251 254 258 261 263 263 265 265 266 269 275 278 282 286 294 301 309 313 319 317 316 315 319 321 315 321 324 321 321
262 264 264 265 267 265 263 261 257 254 251 254 255 256 258 260 260 261 264 265 263 264 267 268 268 272 278 283 287 293 297 299 300 309 311 309 318 319 310 317 320 314 311
266 267 266 264 264 264 263 260 258 259 260 261 262 263 264 263 263 264 267 268 268 267 267 267 271 276 275 277 280 285 288 290 293 298 305 305 313 313 309 314 313 306 304
270 270 270 270 270 269 265 262 260 260 261 262 264 265 267 267 266 267 268 268 268 267 269 269 270 270 271 273 274 276 279 286 292 299 299 299 307 305 310 313 309 302 303
276 275 275 274 273 273 269 265 262 258 260 262 263 265 266 268 268 268 270 269 266 267 270 272 270 266 266 268 268 269 274 277 281 291 295 289 297 303 310 305 302 301 306